TimeCST,TemperatureF,Dew PointF,Humidity,Sea Level PressureIn,VisibilityMPH,Wind Direction,Wind SpeedMPH,Gust SpeedMPH,PrecipitationIn,Events,Conditions,WindDirDegrees,DateUTC
12:53 AM,37.9,21.9,53,30.39,10.0,Calm,Calm,-,N/A,,Partly Cloudy,0,2013-02-16 06:53:00
1:53 AM,37.9,23.0,55,30.40,10.0,WNW,3.5,-,N/A,,Scattered Clouds,290,2013-02-16 07:53:00
2:53 AM,35.1,24.1,64,30.38,10.0,Calm,Calm,-,N/A,,Partly Cloudy,0,2013-02-16 08:53:00
3:53 AM,34.0,24.1,67,30.40,10.0,NNW,3.5,-,N/A,,Partly Cloudy,340,2013-02-16 09:53:00
4:53 AM,35.1,21.9,59,30.39,10.0,Calm,Calm,-,N/A,,Partly Cloudy,0,2013-02-16 10:53:00
5:53 AM,33.8,23.0,65,30.40,10.0,Calm,Calm,-,N/A,,Partly Cloudy,0,2013-02-16 11:53:00
6:53 AM,33.1,23.0,66,30.40,10.0,Calm,Calm,-,N/A,,Scattered Clouds,0,2013-02-16 12:53:00
7:53 AM,35.1,23.0,61,30.43,10.0,WSW,4.6,-,N/A,,Scattered Clouds,250,2013-02-16 13:53:00
8:53 AM,39.9,24.1,53,30.42,10.0,Calm,Calm,-,N/A,,Partly Cloudy,0,2013-02-16 14:53:00
9:53 AM,44.1,25.0,47,30.42,10.0,Variable,4.6,-,N/A,,Clear,0,2013-02-16 15:53:00
10:53 AM,46.9,24.1,41,30.41,10.0,West,4.6,-,N/A,,Partly Cloudy,280,2013-02-16 16:53:00
11:53 AM,48.9,26.1,41,30.40,10.0,Variable,4.6,-,N/A,,Partly Cloudy,0,2013-02-16 17:53:00
12:53 PM,50.0,25.0,38,30.36,10.0,Variable,4.6,-,N/A,,Partly Cloudy,0,2013-02-16 18:53:00
1:53 PM,53.1,25.0,34,30.31,10.0,West,3.5,-,N/A,,Partly Cloudy,270,2013-02-16 19:53:00
2:53 PM,54.0,24.1,31,30.28,10.0,Variable,3.5,-,N/A,,Clear,0,2013-02-16 20:53:00
3:53 PM,55.0,24.1,30,30.25,10.0,SE,3.5,-,N/A,,Clear,130,2013-02-16 21:53:00
4:53 PM,55.9,24.1,29,30.24,10.0,Calm,Calm,-,N/A,,Clear,0,2013-02-16 22:53:00
5:53 PM,54.0,23.0,30,30.22,10.0,South,5.8,-,N/A,,Clear,180,2013-02-16 23:53:00
6:53 PM,52.0,23.0,32,30.20,10.0,South,4.6,-,N/A,,Clear,170,2013-02-17 00:53:00
7:53 PM,50.0,24.1,36,30.20,10.0,SE,6.9,-,N/A,,Clear,130,2013-02-17 01:53:00
8:53 PM,51.1,24.1,35,30.19,10.0,SSE,8.1,-,N/A,,Clear,150,2013-02-17 02:53:00
9:53 PM,50.0,25.0,38,30.21,10.0,SSE,10.4,-,N/A,,Clear,150,2013-02-17 03:53:00
10:53 PM,48.9,25.0,39,30.19,10.0,SSE,10.4,-,N/A,,Clear,150,2013-02-17 04:53:00
11:53 PM,48.0,26.1,42,30.18,10.0,SSE,11.5,-,N/A,,Clear,160,2013-02-17 05:53:00